Tracking 27420 objects as of 28-May-2023
HD Live streaming from Space Station
objects crossing your sky now

OPS 4682 DEB

Track OPS 4682 DEB now!
10-day predictions


NORAD ID: 14717
Int'l Code: 1965-027Q
Perigee: 1,254.9 km
Apogee: 1,308.9 km
Inclination: 90.3 °
Period: 111.0 minutes
Semi major axis: 7652 km
RCS: 0.0307 m2 (small)
Launch date: April 3, 1965
Source: United States (US)
Launch site: AIR FORCE WESTERN TEST RANGE (AFWTR)

Note: This is SATELLITE DEBRIS
Your satellite tracking list
Your tracking list is empty




NASA's NSSDC Master Catalog

Two Line Element Set (TLE):
1 14717U 65027Q   23147.93684363 -.00000111  00000-0 -41142-3 0  9999
2 14717  90.2681 325.1355 0035237 130.6350 358.2649 12.96769045971418
Source of the keplerian elements: AFSPC